Triuchirapalli, India

6:12 PM IST on May 30, 2017 (GMT +0530)
Tiruchirappalli

Weather History for VOTR - October, 2012

Change the Weather History Date:

Sunday, October 7, 2012

  Actual Average Record
Temperature  
Mean Temperature 88 °F -  
Max Temperature 97 °F 85 °F 101 °F (2013)
Min Temperature 78 °F 76 °F 75 °F (2011)
Cooling Degree Days 23    
Growing Degree Days 38 (Base 50)    
Moisture  
Dew Point 72 °F    
Average Humidity 62    
Maximum Humidity 88    
Minimum Humidity 37    
Precipitation  
Precipitation 0.00 in - - ()
Sea Level Pressure  
Sea Level Pressure 29.83 in    
Wind  
Wind Speed 5 mph ()    
Max Wind Speed 16 mph    
Max Gust Speed -    
Visibility 3.6 miles    
Events Thunderstorm    
Averages and records for this station are not official NWS values.
T = Trace of Precipitation, MM = Missing Value Source: Averaged Metar Reports

Daily Weather History Graph

Daily Weather History Graph

Search for Another Location

Airport or City:

Trip Planner

Search our weather history database for the weather conditions in past years. The results will help you decide how hot, cold, wet, or windy it might be!

Date:

Astronomy

Oct. 07, 2012 Rise Set
Actual Time 6:03 AM IST 6:01 PM IST
Civil Twilight 5:42 AM IST 6:22 PM IST
Nautical Twilight 5:18 AM IST 6:47 PM IST
Astronomical Twilight 4:53 AM IST 7:11 PM IST
Moon 11:29 PM IST (10/7) 11:37 AM IST (10/7)
Length of Visible Light 12h 40m
Length of Day
11h 58m
Waning Gibbous, 60% of the Moon is Illuminated
Oct 7
Waning Gibbous
Oct 8
Last Quarter
Oct 15
New
Oct 22
First Quarter
Oct 30
Full

Hourly Weather History & Observations

Time (IST) Temp. Heat Index Dew Point Humidity Pressure Visibility Wind Dir Wind Speed Gust Speed Precip Events Conditions
12:10 AM 84.2 °F 90.9 °F 73.4 °F 70% 29.83 in 3.7 mi South 4.6 mph - N/A   Scattered Clouds
12:40 AM 82.4 °F 88.2 °F 73.4 °F 74% 29.83 in 3.7 mi South 3.5 mph - N/A   Scattered Clouds
1:10 AM 82.4 °F 88.2 °F 73.4 °F 74% 29.83 in 3.7 mi South 3.5 mph - N/A   Scattered Clouds
1:40 AM 80.6 °F 84.6 °F 71.6 °F 74% 29.83 in 3.7 mi South 4.6 mph - N/A   Scattered Clouds
2:10 AM 80.6 °F 85.4 °F 73.4 °F 79% 29.83 in 3.7 mi South 9.2 mph - N/A   Scattered Clouds
2:30 AM 80 °F - 74 °F 77% 29.83 in 2 mi South 4.6 mph - -   Haze
2:40 AM 80.6 °F 85.4 °F 73.4 °F 79% 29.83 in 3.7 mi South 3.5 mph - N/A   Scattered Clouds
3:10 AM 78.8 °F - 73.4 °F 83% 29.83 in 3.7 mi South 3.5 mph - N/A   Scattered Clouds
4:10 AM 80.6 °F 85.4 °F 73.4 °F 79% 29.83 in 3.7 mi SSW 2.3 mph - N/A   Partly Cloudy
5:10 AM 78.8 °F - 73.4 °F 83% 29.83 in 3.7 mi South 3.5 mph - N/A   Scattered Clouds
5:30 AM 80 °F - 77 °F 88% 29.81 in 2 mi South 3.5 mph - -   Haze
6:10 AM 80.6 °F 86.2 °F 75.2 °F 84% 29.83 in 3.7 mi WSW 2.3 mph - N/A   Partly Cloudy
7:40 AM 82.4 °F 89.5 °F 75.2 °F 79% 29.89 in 3.1 mi Calm Calm - N/A   Haze
8:10 AM 86.0 °F 93.4 °F 73.4 °F 66% 29.89 in 3.1 mi Calm Calm - N/A   Haze
8:30 AM 85 °F - 74 °F 64% 29.91 in 2 mi 2.3 mph - -   Haze
8:40 AM 86.0 °F 95.1 °F 75.2 °F 70% 29.92 in 3.7 mi Variable 2.3 mph - N/A   Scattered Clouds
9:10 AM 86.0 °F 95.1 °F 75.2 °F 70% 29.92 in 3.7 mi NE 9.2 mph - N/A   Scattered Clouds
9:40 AM 87.8 °F 95.6 °F 73.4 °F 62% 29.92 in 3.7 mi Variable 2.3 mph - N/A   Scattered Clouds
10:10 AM 89.6 °F 98.2 °F 73.4 °F 59% 29.92 in 3.7 mi NE 3.5 mph - N/A   Scattered Clouds
10:40 AM 91.4 °F 100.1 °F 73.4 °F 55% 29.92 in 3.7 mi Variable 3.5 mph - N/A   Scattered Clouds
11:10 AM 89.6 °F 98.2 °F 73.4 °F 59% 29.89 in 3.7 mi Variable 2.3 mph - N/A   Scattered Clouds
11:30 AM 92 °F - 71 °F 41% 29.86 in 2 mi 2.3 mph - -   Haze
11:40 AM 91.4 °F 98.4 °F 71.6 °F 52% 29.86 in 3.7 mi Variable 2.3 mph - N/A   Scattered Clouds
12:10 PM 93.2 °F 102.4 °F 73.4 °F 52% 29.83 in 3.7 mi NW 5.8 mph - N/A   Scattered Clouds
12:40 PM 93.2 °F 102.4 °F 73.4 °F 52% 29.83 in 5.0 mi Variable 2.3 mph - N/A   Scattered Clouds
1:10 PM 93.2 °F 102.4 °F 73.4 °F 52% 29.80 in 5.0 mi Variable 4.6 mph - N/A   Partly Cloudy
1:40 PM 95.0 °F 104.5 °F 73.4 °F 49% 29.80 in 5.0 mi Variable 3.5 mph - N/A   Partly Cloudy
2:10 PM 95.0 °F 104.5 °F 73.4 °F 49% 29.77 in 5.0 mi NW 3.5 mph - N/A   Scattered Clouds
2:30 PM 95 °F - 71 °F 37% 29.76 in 2 mi 6.9 mph - -   Haze
2:40 PM 95.0 °F 104.5 °F 73.4 °F 49% 29.77 in 5.0 mi Variable 4.6 mph - N/A   Scattered Clouds
3:10 PM 95.0 °F 104.5 °F 73.4 °F 49% 29.77 in 5.0 mi Variable 4.6 mph - N/A   Scattered Clouds
3:40 PM 95.0 °F 104.5 °F 73.4 °F 49% 29.74 in 5.0 mi East 6.9 mph - N/A   Scattered Clouds
4:10 PM 93.2 °F 102.4 °F 73.4 °F 52% 29.74 in 5.0 mi ENE 6.9 mph - N/A   Scattered Clouds
4:40 PM 91.4 °F 98.4 °F 71.6 °F 52% 29.74 in 5.0 mi ENE 11.5 mph - N/A   Scattered Clouds
5:10 PM 91.4 °F 98.4 °F 71.6 °F 52% 29.74 in 3.7 mi ENE 8.1 mph - N/A   Scattered Clouds
5:30 PM 91 °F - 68 °F 37% 29.74 in 2 mi ENE 9.2 mph - -   Haze
5:40 PM 91.4 °F 96.8 °F 69.8 °F 49% 29.74 in 3.7 mi East 6.9 mph - N/A   Scattered Clouds
6:10 PM 89.6 °F 94.7 °F 69.8 °F 52% 29.77 in 3.7 mi ENE 9.2 mph - N/A   Scattered Clouds
6:40 PM 87.8 °F 92.6 °F 69.8 °F 55% 29.77 in 3.7 mi East 9.2 mph - N/A   Scattered Clouds
7:10 PM 87.8 °F 92.6 °F 69.8 °F 55% 29.80 in 3.7 mi East 9.2 mph - N/A   Scattered Clouds
7:40 PM 87.8 °F 92.6 °F 69.8 °F 55% 29.83 in 3.7 mi ESE 9.2 mph - N/A   Scattered Clouds
8:10 PM 86.0 °F 90.4 °F 69.8 °F 58% 29.83 in 3.7 mi South 9.2 mph - N/A   Scattered Clouds
8:30 PM 86 °F - 70 °F 49% 29.85 in 2 mi South 5.8 mph - -   Scattered Clouds
8:40 PM 86.0 °F 90.4 °F 69.8 °F 58% 29.86 in 3.7 mi South 5.8 mph - N/A   Scattered Clouds
9:10 PM 86.0 °F 91.8 °F 71.6 °F 62% 29.86 in 3.7 mi SSW 6.9 mph - N/A   Scattered Clouds
9:40 PM 84.2 °F 89.6 °F 71.6 °F 66% 29.86 in 3.7 mi SW 16.1 mph - N/A   Scattered Clouds
10:10 PM 84.2 °F 89.6 °F 71.6 °F 66% 29.89 in 3.7 mi SW 11.5 mph - N/A   Scattered Clouds
10:40 PM 84.2 °F 90.9 °F 73.4 °F 70% 29.89 in 3.7 mi West 11.5 mph - N/A Thunderstorm Thunderstorm
11:10 PM 82.4 °F 88.2 °F 73.4 °F 74% 29.89 in 3.7 mi WSW 11.5 mph - N/A Thunderstorm Thunderstorm
11:30 PM 79 °F - 69 °F 65% 29.87 in 2 mi West 9.2 mph - - Thunderstorm Thunderstorm
11:40 PM 78.8 °F - 69.8 °F 74% 29.86 in 3.7 mi West 9.2 mph - N/A Thunderstorm Thunderstorm